Station TIBC1 - Tiburon Pier, San Francisco Bay, CA Image indicating link to RSS feed of recent meteorological observations for station TIBC1


Conditions at TIBC1 as of
(8:44 pm PDT on 06/13/2024)
0344 GMT on 06/14/2024:
     

Click on the graph icon in the table below to see a time series plot of the last five days of that observation.

5-day plot - Wind Direction Wind Direction (WDIR):SSW ( 200 deg true )
5-day plot - Wind Speed Wind Speed (WSPD): 9.9 kts
5-day plot - Atmospheric Pressure Atmospheric Pressure (PRES):30.00 in
5-day plot - Air Temperature Air Temperature (ATMP): 52.2 °F
5-day plot - Dew Point Dew Point (DEWP): 47.8 °F
5-day plot - Wind Chill Wind Chill (CHILL): 48.4 °F
5-day plot - Wind Speed at 10 Meters Wind Speed at 10 meters (WSPD10M): 11.7 kts
5-day plot - Wind Speed at 20 Meters Wind Speed at 20 meters (WSPD20M): 11.7 kts
5-day plot -  Wind Speed, Wind Gust and Atmospheric Pressure Combined plot of Wind Speed, Gust, and Air Pressure
Previous observations
TIME
(PDT)
5-day plot - Wind Direction
WDIR
 
5-day plot - Wind Speed
WSPD
kts
5-day plot - Wind Gust
GST
kts
5-day plot - Wave Height
WVHT
ft
5-day plot - Dominant Wave Period
DPD
sec
5-day plot - Average Wave Period
APD
sec
5-day plot - Mean Wave Direction
MWD
 
5-day plot - Atmospheric Pressure
PRES
in
5-day plot - Pressure Tendency
PTDY
in
5-day plot - Air Temperature
ATMP
°F
5-day plot - Water Temperature
WTMP
°F
5-day plot - Dew Point
DEWP
°F
5-day plot - Salinity
SAL
psu
5-day plot - Visibility
VIS
nmi
5-day plot - Tide (above MLLW)
TIDE
ft
2024-06-13 08:29 pm SW 8.0-----29.97- 52.2- 47.8---
2024-06-13 08:14 pmSSW 8.9-----29.97- 52.2- 47.7---
2024-06-13 07:59 pm SW 8.9-----29.97- 52.2- 47.7---
2024-06-13 07:44 pmSSW 14.0-----29.97- 52.3- 47.8---
2024-06-13 07:29 pm SW 15.9-----29.97- 52.3- 47.7---
2024-06-13 07:14 pmWSW 9.9-----29.97- 52.5- 47.8---
2024-06-13 06:59 pmSSW 15.0-----29.97- 52.5- 47.8---
2024-06-13 06:44 pm S 8.9-----29.97- 52.9- 47.8---
2024-06-13 06:29 pm SW 15.0-----29.97- 53.1- 48.0---
2024-06-13 06:14 pmWSW 14.0-----29.97- 53.2- 47.8---
2024-06-13 05:59 pmSSW 8.9-----29.94- 53.4- 48.0---
2024-06-13 05:44 pm SW 11.1-----29.94- 54.0- 48.2---
2024-06-13 05:29 pmSSW 15.0-----29.94- 53.6- 48.0---
2024-06-13 05:14 pm SW 13.0-----29.94- 53.2- 47.8---
2024-06-13 04:59 pmWSW 8.0-----29.94- 54.1- 48.4---
2024-06-13 04:44 pmWSW 11.1-----29.94- 54.7- 48.6---
2024-06-13 04:29 pmSSW 8.9-----29.94- 55.0- 48.9---
2024-06-13 04:14 pm SW 8.9-----29.94- 54.9- 48.7---
2024-06-13 03:59 pmSSW 13.0-----29.94- 55.4- 48.7---
2024-06-13 03:44 pmWSW 14.0-----29.94- 55.2- 48.6---
2024-06-13 03:29 pm SW 5.1-----29.94- 55.9- 49.1---
2024-06-13 03:14 pmSSW 11.1-----29.94- 56.7- 49.3---
2024-06-13 02:59 pmSSE 5.1-----29.94- 55.9- 48.9---
2024-06-13 02:44 pmSSE 8.9-----29.97- 56.1- 49.3---
2024-06-13 02:29 pm S 9.9-----29.94- 55.4- 48.6---
2024-06-13 02:14 pm S 8.0-----29.94- 55.4- 48.9---
2024-06-13 01:59 pm S 11.1-----29.94- 55.2- 48.9---
2024-06-13 01:44 pm SW 11.1-----29.94- 55.0- 48.7---
2024-06-13 01:29 pm S 13.0-----29.94- 54.9- 48.7---
2024-06-13 01:14 pm SW 12.0-----29.97- 55.4- 49.1---
2024-06-13 12:59 pmSSW 15.0-----29.97- 54.9- 48.6---
2024-06-13 12:44 pmSSW 8.0-----29.97- 56.1- 49.5---
2024-06-13 12:29 pmWSW 8.9-----29.97- 55.2- 48.7---
2024-06-13 12:14 pm S 7.0-----29.97- 55.0- 49.1---
2024-06-13 11:59 am S 4.1-----29.97- 54.9- 49.1---
2024-06-13 11:44 am S 9.9-----29.97- 54.9- 48.9---
2024-06-13 11:29 amSSE 8.0-----29.97- 54.7- 48.9---
2024-06-13 11:14 amSSW 5.1-----29.97- 54.5- 49.3---
2024-06-13 10:59 amSSW 5.1-----29.97- 54.0- 49.1---
2024-06-13 10:44 am S 6.0-----29.97- 54.3- 49.6---
2024-06-13 10:29 amSSE 7.0-----29.94- 52.7- 48.7---
2024-06-13 10:14 am SE 8.9-----29.94- 52.7- 48.4---
2024-06-13 09:59 amSSE 8.0-----29.94- 52.5- 48.0---
2024-06-13 09:44 am SE 8.9-----29.94- 52.7- 48.2---
2024-06-13 09:29 amESE 9.9-----29.94- 52.7- 48.0---
2024-06-13 09:14 amSSE 5.1-----29.94- 53.6- 48.4---
2024-06-13 08:59 am SE 8.9-----29.94- 52.9- 48.2---
2024-06-13 08:44 amESE 4.1-----29.94- 52.3- 48.0---
2024-06-13 08:29 amSSE 6.0-----29.94- 52.3- 47.8---
2024-06-13 08:14 amENE 1.9-----29.94- 52.9- 48.0---
2024-06-13 07:59 am S 13.0-----29.94- 52.7- 48.0---
2024-06-13 07:44 am SE 7.0-----29.94- 52.5- 48.0---
2024-06-13 07:29 am S 5.1-----29.94- 52.7- 48.0---
2024-06-13 07:14 am S 9.9-----29.91- 52.5- 48.2---
2024-06-13 06:59 am S 7.0-----29.91- 51.6- 47.8---
2024-06-13 06:44 am S 13.0-----29.91- 51.1- 47.7---
2024-06-13 06:29 am S 6.0-----29.91- 51.6- 48.0---
2024-06-13 06:14 am S 14.0-----29.91- 51.3- 47.8---
2024-06-13 05:59 am S 15.9-----29.91- 51.1- 47.8---
2024-06-13 05:44 am S 8.0-----29.91- 51.1- 47.8---
2024-06-13 05:29 am SW 14.0-----29.88- 51.1- 47.7---
2024-06-13 05:14 amSSW 8.0-----29.88- 51.1- 47.8---
2024-06-13 04:59 am S 8.9-----29.88- 51.1- 47.8---
2024-06-13 04:44 am SW 6.0-----29.88- 50.9- 47.8---
2024-06-13 04:29 am S 13.0-----29.88- 50.7- 47.7---
2024-06-13 04:14 am SW 12.0-----29.88- 51.1- 47.8---
2024-06-13 03:59 am SW 14.0-----29.85- 51.4- 48.2---
2024-06-13 03:44 am SW 12.0-----29.85- 51.6- 48.2---
2024-06-13 03:29 am S 14.0-----29.85- 51.8- 48.4---
2024-06-13 03:14 am SW 17.1-----29.85- 51.6- 48.6---
2024-06-13 02:59 amSSW 12.0-----29.85- 51.8- 48.6---
2024-06-13 02:44 am SW 11.1-----29.85- 52.0- 48.7---
2024-06-13 02:29 amWSW 15.0-----29.85- 52.0- 48.6---
2024-06-13 02:14 amSSW 8.9-----29.85- 52.3- 48.7---
2024-06-13 01:59 am S 8.0-----29.85- 52.3- 48.7---
2024-06-13 01:44 amSSW 14.0-----29.85- 52.5- 48.9---
2024-06-13 01:29 amSSW 15.0-----29.85- 52.3- 48.9---
2024-06-13 01:14 am NW 8.0-----29.85- 52.5- 49.1---
2024-06-13 12:59 am SW 8.9-----29.85- 52.7- 49.1---
2024-06-13 12:44 am S 13.0-----29.85- 52.7- 49.3---
2024-06-13 12:29 amSSW 13.0-----29.85- 52.9- 49.3---
2024-06-13 12:14 am S 7.0-----29.88- 52.9- 49.3---
2024-06-12 11:59 pmSSW 13.0-----29.88- 52.9- 49.3---
2024-06-12 11:44 pmWSW 7.0-----29.88- 53.1- 49.5---
2024-06-12 11:29 pmSSW 13.0-----29.85- 52.9- 49.1---
2024-06-12 11:14 pm SW 11.1-----29.88- 52.9- 49.3---
2024-06-12 10:59 pm S 14.0-----29.88- 53.1- 49.3---
2024-06-12 10:44 pmSSW 7.0-----29.88- 53.1- 49.1---
2024-06-12 10:29 pm S 15.0-----29.88- 53.1- 49.1---
2024-06-12 10:14 pm SW 8.9-----29.88- 53.2- 49.1---
2024-06-12 09:59 pmSSW 8.9-----29.88- 53.1- 48.9---